CBERS 1 DEB, 30792

Orbit data source: Space-Track

CBERS 1 DEB, 30792 is space debris in SSO originally from a launch on Thu, 14 Oct 1999 UTC launched from the Taiyaun Space Center, China (TSC). Debris objects in space refer to the collection of defunct objects orbiting the Earth. Examples of debris include non-operational satellites, rocket bodies, and fragments generated from explosions, collisions, or faulty payload assembly.

Loading next visibility...
Identifier
30792, 1999-057PB
Orbit
SSO
Country
Flag of UnknownUnknown / CHBZ
Related business
Manufacturer
Unknown
Mission
Spacecraft
Bus & Motor
Unknown
Mass
Unknown
Launch date (UTC)
1999-10-14 (26 years ago)
Launch vehicle
Unknown
Launch site
Taiyaun Space Center, China (TSC)
Object type
Payload
Rocket body
Debris
Shape & HBR
Unknown shape, 0.1 m
Radar Cross Section
Small (<0.1 m²)

Expand to show TLE details & history
Last TLE update: 6 hours ago

TLE from 6 hours ago
0 CBERS 1 DEB
1 30792U 99057PB  25300.95558939  .00000436  00000-0  16209-3 0  9998
2 30792  98.8462 299.5669 0005974 319.1401  70.6888 14.37258703978168
Epoch: 2025-10-27T22:56Z
TLE epoch observation values (Epoch: 2025-10-27T22:56:02.923Z)
Latitude
29.55292°
Longitude
-86.03078°
Altitude
769.851 km
Speed
7.473 km/s
True Right ascension
19h 38m 07s
True Declination
29° 24' 21"
Sunlit
Object was in daylight at epoch
Visualization orbit readout
Latitude
Unknown
Longitude
Unknown
Altitude
Unknown
Speed
Unknown
Apparent Right ascension
Unknown
Apparent Declination
Unknown
Sunlit
N/A
Visualization observer readout
Local Sidereal Time
00:36:50
Azimuth
Unknown
Elevation
Unknown
Doppler factor
Unknown
Orbital elements
Apogee altitude
768.979 km
Perigee altitude
760.445 km
Semi-major axis
7,142.849 km
Eccentricity
0.0006
Inclination
98.8462°
RAAN
299.5669°
Arg. of periapsis
319.1401°
True anomaly
70.75342°
Mean anomaly
70.6888°
Eccentric anomaly
70.72111°
Mean motion
3.59531 °/min
Orbital period
100.13 mins
BSTAR
0.00016209
Loading maneuver chart data...
Computing Atmospheric mass density...

Documentation

Showing up to 5 results
|